GFSNE_prec_precacc12_153.txt.gz
Total_Precipitation_Accumulation
0.36 0.31 0.27 0.17 0.19 0.23 0.28 0.32 0.42 0.51 0.66 0.47 0.23 0.14 0.08 0.06 0.02 0.03 0.02 0.00 0.00 0.00 0.00 0.00 0.00 0.00 0.00 0.00 0.00 0.01 0.01 0.02 0.02 0.01 0.01 0.01 0.02 0.02
0.18 0.21 0.16 0.14 0.16 0.17 0.25 0.26 0.28 0.30 0.23 0.27 0.25 0.16 0.12 0.06 0.03 0.01 0.00 0.02 0.00 0.00 0.00 0.00 0.00 0.00 0.00 0.00 0.00 0.01 0.01 0.02 0.02 0.02 0.01 0.01 0.00 0.00
0.25 0.24 0.20 0.24 0.24 0.24 0.25 0.25 0.20 0.25 0.18 0.25 0.33 0.37 0.29 0.15 0.06 0.06 0.05 0.03 0.01 0.00 0.00 0.00 0.00 0.00 0.00 0.00 0.00 0.01 0.01 0.01 0.02 0.01 0.01 0.01 0.01 0.00
0.19 0.25 0.21 0.29 0.28 0.29 0.38 0.33 0.28 0.22 0.22 0.11 0.30 0.39 0.52 0.58 0.36 0.21 0.10 0.06 0.04 0.03 0.02 0.01 0.00 0.00 0.00 0.00 0.00 0.01 0.01 0.02 0.03 0.03 0.03 0.03 0.02 0.03
0.14 0.17 0.13 0.26 0.29 0.28 0.33 0.29 0.31 0.26 0.27 0.21 0.21 0.21 0.20 0.32 0.33 0.32 0.29 0.16 0.09 0.09 0.10 0.10 0.08 0.05 0.02 0.01 0.01 0.01 0.02 0.03 0.06 0.09 0.09 0.08 0.08 0.07
0.10 0.11 0.12 0.18 0.18 0.20 0.24 0.27 0.31 0.41 0.47 0.41 0.37 0.26 0.16 0.12 0.14 0.28 0.40 0.36 0.27 0.19 0.17 0.14 0.14 0.12 0.09 0.09 0.08 0.06 0.05 0.05 0.05 0.05 0.05 0.08 0.13 0.19
0.08 0.08 0.09 0.18 0.22 0.25 0.23 0.19 0.22 0.30 0.56 0.90 0.98 0.67 0.47 0.44 0.31 0.20 0.17 0.30 0.41 0.35 0.27 0.25 0.23 0.23 0.19 0.16 0.16 0.16 0.13 0.11 0.09 0.10 0.11 0.10 0.10 0.10
0.04 0.11 0.12 0.15 0.14 0.20 0.27 0.30 0.30 0.28 0.30 0.29 0.27 0.28 0.27 0.25 0.31 0.40 0.36 0.28 0.31 0.32 0.37 0.39 0.38 0.31 0.31 0.31 0.41 0.29 0.20 0.20 0.19 0.17 0.17 0.17 0.17 0.19
0.01 0.04 0.18 0.25 0.18 0.10 0.18 0.32 0.49 0.52 0.34 0.25 0.26 0.18 0.13 0.11 0.16 0.21 0.23 0.28 0.33 0.29 0.45 0.64 0.51 0.43 0.39 0.45 0.58 0.49 0.41 0.37 0.39 0.38 0.34 0.28 0.24 0.23
0.00 0.02 0.05 0.14 0.27 0.17 0.10 0.12 0.14 0.22 0.26 0.23 0.24 0.23 0.17 0.11 0.18 0.24 0.22 0.30 0.31 0.39 0.59 0.69 0.53 0.43 0.44 0.50 0.61 0.51 0.55 0.61 0.61 0.55 0.54 0.53 0.50 0.43
0.00 0.01 0.02 0.07 0.30 0.42 0.31 0.27 0.31 0.27 0.31 0.43 0.39 0.25 0.28 0.34 0.21 0.11 0.16 0.21 0.21 0.17 0.22 0.26 0.26 0.30 0.41 0.48 0.49 0.50 0.51 0.55 0.61 0.73 0.73 0.70 0.72 0.79
0.00 0.01 0.05 0.05 0.09 0.15 0.14 0.10 0.12 0.18 0.33 0.32 0.28 0.51 0.63 0.57 0.40 0.25 0.20 0.14 0.18 0.26 0.23 0.21 0.20 0.19 0.34 0.42 0.37 0.41 0.44 0.52 0.59 0.64 0.64 0.64 0.66 0.60
0.00 0.00 0.01 0.06 0.05 0.13 0.16 0.08 0.05 0.04 0.06 0.13 0.19 0.11 0.12 0.29 0.35 0.23 0.18 0.20 0.18 0.15 0.15 0.25 0.26 0.23 0.26 0.31 0.30 0.33 0.37 0.49 0.59 0.62 0.61 0.59 0.56 0.51
0.00 0.00 0.01 0.04 0.03 0.07 0.11 0.15 0.14 0.09 0.03 0.04 0.08 0.08 0.11 0.14 0.15 0.14 0.14 0.19 0.16 0.16 0.24 0.31 0.25 0.21 0.26 0.31 0.33 0.41 0.48 0.52 0.54 0.55 0.55 0.58 0.58 0.52
0.00 0.00 0.01 0.02 0.02 0.02 0.09 0.16 0.20 0.15 0.13 0.11 0.07 0.07 0.09 0.12 0.19 0.27 0.34 0.36 0.41 0.46 0.53 0.49 0.37 0.34 0.38 0.35 0.33 0.38 0.54 0.60 0.53 0.47 0.44 0.42 0.39 0.37
0.00 0.00 0.00 0.01 0.02 0.05 0.17 0.21 0.15 0.15 0.25 0.30 0.29 0.23 0.18 0.20 0.25 0.27 0.31 0.31 0.41 0.51 0.52 0.51 0.49 0.46 0.48 0.47 0.40 0.46 0.44 0.42 0.42 0.37 0.33 0.34 0.30 0.25
0.00 0.00 0.01 0.00 0.02 0.08 0.12 0.12 0.11 0.13 0.13 0.13 0.19 0.28 0.35 0.36 0.30 0.27 0.35 0.41 0.42 0.36 0.42 0.55 0.60 0.52 0.50 0.48 0.47 0.39 0.34 0.31 0.31 0.30 0.27 0.25 0.20 0.16
0.01 0.01 0.01 0.02 0.03 0.05 0.09 0.16 0.14 0.11 0.07 0.10 0.11 0.12 0.16 0.22 0.28 0.33 0.32 0.30 0.33 0.44 0.53 0.56 0.53 0.50 0.48 0.50 0.38 0.32 0.31 0.24 0.24 0.21 0.17 0.16 0.18 0.16
0.02 0.02 0.02 0.02 0.03 0.06 0.09 0.11 0.12 0.15 0.17 0.16 0.13 0.12 0.12 0.12 0.22 0.19 0.25 0.31 0.36 0.36 0.37 0.40 0.41 0.36 0.37 0.35 0.43 0.30 0.19 0.18 0.19 0.22 0.17 0.12 0.10 0.11
0.02 0.03 0.03 0.02 0.03 0.06 0.08 0.12 0.15 0.14 0.12 0.13 0.18 0.22 0.22 0.20 0.19 0.16 0.16 0.20 0.24 0.28 0.31 0.32 0.27 0.23 0.17 0.15 0.18 0.28 0.16 0.12 0.10 0.10 0.10 0.09 0.07 0.06
0.03 0.03 0.04 0.04 0.04 0.05 0.09 0.13 0.16 0.17 0.17 0.16 0.16 0.16 0.19 0.22 0.27 0.28 0.30 0.33 0.30 0.28 0.29 0.31 0.31 0.23 0.16 0.15 0.22 0.30 0.29 0.13 0.04 0.02 0.02 0.05 0.06 0.06
0.05 0.06 0.05 0.06 0.07 0.09 0.12 0.16 0.20 0.24 0.27 0.25 0.24 0.24 0.27 0.26 0.25 0.27 0.33 0.41 0.44 0.38 0.34 0.36 0.29 0.22 0.25 0.24 0.23 0.19 0.25 0.25 0.16 0.08 0.03 0.02 0.03 0.02
0.07 0.08 0.08 0.08 0.09 0.11 0.14 0.19 0.23 0.29 0.33 0.33 0.34 0.34 0.33 0.34 0.33 0.31 0.29 0.26 0.22 0.23 0.25 0.31 0.35 0.34 0.32 0.25 0.22 0.23 0.19 0.17 0.14 0.10 0.08 0.01 0.00 0.00

GFSNE_prec_precacc12_156.txt.gz
Total_Precipitation_Accumulation
0.42 0.32 0.30 0.22 0.25 0.30 0.30 0.34 0.44 0.52 0.68 0.52 0.32 0.22 0.18 0.16 0.08 0.12 0.09 0.06 0.03 0.00 0.00 0.00 0.00 0.00 0.00 0.00 0.00 0.00 0.01 0.02 0.02 0.01 0.01 0.01 0.02 0.03
0.18 0.23 0.19 0.16 0.18 0.17 0.20 0.22 0.29 0.30 0.23 0.27 0.29 0.20 0.17 0.12 0.09 0.07 0.05 0.08 0.05 0.01 0.00 0.00 0.00 0.00 0.00 0.00 0.00 0.00 0.01 0.02 0.02 0.02 0.01 0.01 0.00 0.01
0.22 0.21 0.18 0.24 0.22 0.21 0.19 0.17 0.17 0.26 0.18 0.24 0.33 0.38 0.31 0.16 0.07 0.08 0.08 0.05 0.02 0.02 0.00 0.00 0.00 0.00 0.00 0.00 0.00 0.00 0.01 0.02 0.02 0.01 0.01 0.01 0.01 0.01
0.17 0.24 0.19 0.28 0.25 0.23 0.32 0.30 0.27 0.23 0.25 0.11 0.30 0.40 0.57 0.61 0.35 0.20 0.11 0.05 0.04 0.04 0.02 0.01 0.00 0.00 0.00 0.00 0.00 0.00 0.01 0.02 0.02 0.01 0.01 0.01 0.01 0.02
0.11 0.16 0.14 0.27 0.30 0.28 0.35 0.31 0.34 0.33 0.40 0.31 0.26 0.25 0.27 0.39 0.35 0.26 0.19 0.08 0.04 0.07 0.08 0.09 0.07 0.05 0.02 0.01 0.01 0.01 0.01 0.01 0.02 0.03 0.04 0.05 0.06 0.07
0.04 0.07 0.10 0.17 0.20 0.20 0.24 0.26 0.28 0.38 0.52 0.52 0.51 0.39 0.21 0.17 0.20 0.31 0.37 0.24 0.16 0.11 0.15 0.12 0.12 0.11 0.08 0.07 0.07 0.05 0.04 0.04 0.03 0.03 0.03 0.07 0.13 0.19
0.03 0.03 0.06 0.13 0.19 0.20 0.19 0.16 0.19 0.28 0.57 0.92 1.00 0.72 0.57 0.59 0.41 0.24 0.16 0.20 0.26 0.21 0.15 0.22 0.25 0.23 0.15 0.12 0.12 0.13 0.12 0.11 0.10 0.10 0.11 0.10 0.10 0.10
0.16 0.06 0.03 0.06 0.07 0.13 0.20 0.23 0.25 0.26 0.29 0.31 0.31 0.30 0.28 0.27 0.38 0.54 0.60 0.34 0.17 0.16 0.31 0.40 0.46 0.45 0.33 0.25 0.33 0.25 0.18 0.19 0.19 0.18 0.17 0.18 0.19 0.21
0.07 0.03 0.00 0.01 0.04 0.03 0.08 0.25 0.43 0.49 0.33 0.26 0.26 0.19 0.15 0.17 0.20 0.26 0.25 0.30 0.33 0.24 0.29 0.39 0.53 0.67 0.64 0.60 0.62 0.44 0.36 0.34 0.37 0.38 0.36 0.33 0.30 0.31
0.01 0.00 0.00 0.00 0.01 0.01 0.01 0.05 0.12 0.20 0.25 0.23 0.24 0.23 0.17 0.15 0.22 0.31 0.40 0.48 0.41 0.34 0.49 0.57 0.47 0.53 0.57 0.55 0.60 0.49 0.51 0.54 0.55 0.49 0.51 0.53 0.54 0.56
0.01 0.01 0.00 0.00 0.02 0.02 0.04 0.11 0.25 0.25 0.30 0.43 0.39 0.24 0.29 0.36 0.25 0.14 0.22 0.24 0.20 0.12 0.14 0.22 0.24 0.32 0.39 0.41 0.39 0.44 0.49 0.48 0.52 0.63 0.65 0.65 0.72 0.87
0.00 0.00 0.01 0.01 0.01 0.01 0.01 0.01 0.05 0.16 0.32 0.31 0.27 0.49 0.62 0.56 0.42 0.28 0.22 0.15 0.16 0.21 0.14 0.10 0.07 0.10 0.20 0.25 0.23 0.26 0.31 0.38 0.44 0.50 0.54 0.60 0.66 0.62
0.00 0.00 0.00 0.01 0.00 0.00 0.02 0.02 0.03 0.03 0.05 0.12 0.18 0.09 0.11 0.29 0.34 0.23 0.18 0.20 0.18 0.13 0.12 0.16 0.12 0.09 0.11 0.11 0.12 0.15 0.19 0.29 0.38 0.45 0.52 0.55 0.56 0.51
0.01 0.00 0.00 0.00 0.00 0.00 0.01 0.02 0.07 0.07 0.02 0.04 0.08 0.07 0.09 0.12 0.13 0.12 0.11 0.16 0.14 0.12 0.15 0.17 0.13 0.11 0.12 0.13 0.14 0.20 0.26 0.31 0.35 0.44 0.48 0.56 0.58 0.53
0.00 0.00 0.00 0.00 0.00 0.00 0.01 0.01 0.02 0.02 0.05 0.07 0.06 0.06 0.08 0.12 0.19 0.26 0.33 0.35 0.40 0.42 0.44 0.37 0.29 0.23 0.25 0.26 0.23 0.24 0.32 0.38 0.40 0.38 0.40 0.41 0.39 0.37
0.00 0.00 0.00 0.00 0.00 0.00 0.00 0.00 0.00 0.02 0.07 0.12 0.18 0.20 0.18 0.20 0.24 0.27 0.29 0.28 0.34 0.41 0.39 0.36 0.38 0.39 0.37 0.33 0.31 0.39 0.38 0.39 0.40 0.37 0.33 0.33 0.30 0.25
0.00 0.00 0.00 0.00 0.00 0.00 0.00 0.00 0.00 0.00 0.01 0.03 0.12 0.26 0.34 0.36 0.30 0.26 0.33 0.38 0.35 0.27 0.28 0.36 0.41 0.38 0.38 0.38 0.40 0.36 0.34 0.36 0.38 0.38 0.33 0.29 0.22 0.17
0.00 0.01 0.01 0.01 0.00 0.00 0.00 0.01 0.02 0.03 0.01 0.04 0.09 0.12 0.16 0.22 0.27 0.32 0.30 0.25 0.25 0.34 0.39 0.39 0.38 0.46 0.50 0.48 0.37 0.29 0.32 0.35 0.40 0.36 0.29 0.25 0.25 0.20
0.01 0.01 0.02 0.02 0.01 0.01 0.01 0.01 0.02 0.04 0.08 0.11 0.12 0.12 0.11 0.12 0.20 0.19 0.24 0.27 0.28 0.28 0.27 0.28 0.29 0.28 0.31 0.33 0.45 0.37 0.31 0.33 0.37 0.42 0.34 0.24 0.19 0.17
0.02 0.02 0.03 0.02 0.02 0.02 0.01 0.02 0.02 0.03 0.04 0.09 0.16 0.21 0.21 0.20 0.18 0.16 0.15 0.17 0.21 0.24 0.27 0.28 0.26 0.24 0.21 0.17 0.21 0.36 0.30 0.31 0.32 0.32 0.30 0.23 0.19 0.16
0.02 0.03 0.03 0.03 0.03 0.02 0.02 0.02 0.02 0.03 0.06 0.09 0.12 0.15 0.18 0.22 0.26 0.27 0.28 0.32 0.30 0.28 0.29 0.31 0.32 0.28 0.21 0.23 0.37 0.49 0.49 0.32 0.22 0.17 0.17 0.18 0.19 0.18
0.03 0.04 0.04 0.04 0.04 0.04 0.04 0.03 0.03 0.04 0.07 0.10 0.15 0.21 0.24 0.24 0.23 0.25 0.31 0.40 0.44 0.39 0.36 0.38 0.32 0.27 0.32 0.32 0.31 0.29 0.40 0.44 0.35 0.26 0.19 0.13 0.12 0.09
0.04 0.05 0.05 0.05 0.05 0.05 0.05 0.05 0.04 0.04 0.08 0.12 0.19 0.25 0.28 0.31 0.31 0.30 0.29 0.26 0.23 0.25 0.26 0.33 0.39 0.39 0.41 0.36 0.34 0.37 0.35 0.35 0.33 0.29 0.26 0.14 0.08 0.05

GFSNE_prec_precacc12_162.txt.gz
Total_Precipitation_Accumulation
0.40 0.37 0.35 0.31 0.34 0.42 0.44 0.37 0.35 0.39 0.52 0.53 0.41 0.27 0.20 0.20 0.15 0.21 0.21 0.16 0.15 0.10 0.06 0.02 0.01 0.01 0.01 0.00 0.00 0.00 0.00 0.00 0.00 0.00 0.00 0.01 0.02 0.03
0.18 0.21 0.20 0.20 0.21 0.17 0.22 0.23 0.20 0.13 0.14 0.24 0.27 0.16 0.18 0.16 0.15 0.14 0.09 0.14 0.13 0.10 0.08 0.05 0.02 0.00 0.01 0.03 0.02 0.01 0.01 0.01 0.00 0.00 0.00 0.00 0.00 0.01
0.12 0.15 0.16 0.20 0.21 0.17 0.15 0.15 0.11 0.11 0.04 0.03 0.11 0.15 0.19 0.12 0.08 0.10 0.11 0.10 0.06 0.07 0.06 0.05 0.02 0.01 0.01 0.01 0.03 0.04 0.05 0.05 0.03 0.00 0.00 0.00 0.01 0.01
0.12 0.14 0.16 0.20 0.18 0.17 0.25 0.23 0.21 0.16 0.13 0.04 0.10 0.17 0.16 0.24 0.25 0.20 0.11 0.07 0.08 0.07 0.08 0.10 0.06 0.03 0.02 0.01 0.01 0.02 0.04 0.06 0.07 0.03 0.00 0.00 0.00 0.00
0.16 0.16 0.15 0.20 0.22 0.19 0.21 0.22 0.23 0.24 0.27 0.23 0.12 0.14 0.15 0.20 0.21 0.18 0.16 0.07 0.04 0.05 0.06 0.08 0.08 0.06 0.04 0.03 0.02 0.02 0.02 0.03 0.05 0.03 0.00 0.00 0.00 0.02
0.29 0.24 0.17 0.19 0.21 0.15 0.16 0.13 0.10 0.14 0.23 0.29 0.35 0.31 0.16 0.11 0.15 0.28 0.35 0.23 0.14 0.09 0.10 0.07 0.07 0.08 0.08 0.07 0.08 0.05 0.04 0.04 0.04 0.03 0.01 0.01 0.02 0.04
0.47 0.36 0.28 0.25 0.28 0.21 0.13 0.08 0.09 0.12 0.20 0.37 0.44 0.49 0.50 0.54 0.38 0.22 0.17 0.21 0.30 0.25 0.13 0.14 0.13 0.09 0.06 0.07 0.11 0.11 0.09 0.09 0.09 0.09 0.06 0.05 0.05 0.05
0.50 0.47 0.39 0.25 0.17 0.16 0.14 0.15 0.12 0.10 0.13 0.15 0.19 0.21 0.25 0.26 0.35 0.57 0.66 0.40 0.22 0.21 0.37 0.38 0.33 0.29 0.23 0.16 0.14 0.16 0.14 0.09 0.08 0.11 0.13 0.12 0.12 0.12
0.43 0.34 0.31 0.31 0.22 0.11 0.11 0.11 0.12 0.15 0.15 0.18 0.18 0.11 0.11 0.15 0.18 0.20 0.21 0.28 0.33 0.26 0.33 0.39 0.50 0.59 0.49 0.47 0.49 0.38 0.26 0.23 0.19 0.16 0.18 0.23 0.28 0.30
0.47 0.37 0.27 0.21 0.22 0.20 0.13 0.14 0.10 0.08 0.12 0.07 0.06 0.10 0.13 0.12 0.19 0.26 0.30 0.40 0.42 0.39 0.52 0.60 0.43 0.44 0.42 0.33 0.33 0.36 0.40 0.30 0.26 0.32 0.36 0.38 0.41 0.44
0.16 0.29 0.30 0.21 0.16 0.13 0.12 0.13 0.12 0.12 0.05 0.04 0.02 0.02 0.10 0.13 0.10 0.10 0.15 0.23 0.21 0.15 0.16 0.28 0.32 0.38 0.38 0.38 0.27 0.23 0.26 0.33 0.36 0.35 0.45 0.54 0.64 0.82
0.02 0.05 0.14 0.22 0.18 0.11 0.05 0.03 0.05 0.03 0.01 0.00 0.00 0.01 0.01 0.04 0.12 0.08 0.06 0.11 0.18 0.21 0.14 0.10 0.06 0.11 0.25 0.26 0.24 0.22 0.18 0.18 0.19 0.24 0.28 0.36 0.51 0.57
0.01 0.01 0.03 0.07 0.12 0.13 0.09 0.03 0.02 0.01 0.00 0.00 0.00 0.00 0.00 0.02 0.03 0.02 0.02 0.10 0.18 0.13 0.12 0.16 0.11 0.07 0.08 0.04 0.04 0.10 0.13 0.17 0.19 0.16 0.16 0.21 0.30 0.39
0.02 0.02 0.01 0.01 0.01 0.04 0.07 0.07 0.04 0.02 0.00 0.00 0.00 0.00 0.00 0.00 0.02 0.01 0.01 0.02 0.08 0.12 0.14 0.15 0.12 0.08 0.07 0.07 0.04 0.04 0.07 0.08 0.08 0.10 0.14 0.23 0.31 0.33
0.00 0.00 0.00 0.00 0.00 0.01 0.01 0.02 0.03 0.01 0.01 0.00 0.00 0.00 0.00 0.00 0.01 0.05 0.09 0.10 0.17 0.30 0.41 0.36 0.29 0.23 0.21 0.20 0.16 0.11 0.11 0.10 0.14 0.14 0.13 0.14 0.19 0.25
0.00 0.00 0.00 0.00 0.00 0.00 0.00 0.01 0.01 0.01 0.01 0.01 0.00 0.00 0.00 0.00 0.01 0.02 0.04 0.06 0.09 0.20 0.30 0.35 0.37 0.39 0.33 0.26 0.23 0.23 0.18 0.17 0.15 0.16 0.20 0.26 0.28 0.26
0.00 0.00 0.00 0.00 0.00 0.00 0.00 0.00 0.01 0.01 0.01 0.00 0.00 0.00 0.00 0.00 0.00 0.02 0.08 0.12 0.12 0.11 0.15 0.25 0.31 0.28 0.28 0.29 0.28 0.24 0.21 0.23 0.24 0.24 0.26 0.29 0.28 0.27
0.00 0.00 0.00 0.01 0.01 0.01 0.01 0.01 0.00 0.00 0.01 0.01 0.01 0.01 0.00 0.01 0.01 0.01 0.03 0.04 0.05 0.13 0.20 0.23 0.28 0.34 0.36 0.31 0.28 0.17 0.18 0.23 0.27 0.29 0.29 0.29 0.34 0.35
0.00 0.00 0.01 0.02 0.01 0.01 0.01 0.01 0.01 0.01 0.01 0.01 0.01 0.01 0.01 0.01 0.03 0.01 0.03 0.05 0.06 0.07 0.10 0.14 0.18 0.21 0.26 0.28 0.30 0.25 0.20 0.22 0.28 0.37 0.36 0.31 0.29 0.35
0.00 0.01 0.02 0.02 0.02 0.02 0.01 0.01 0.01 0.00 0.01 0.01 0.01 0.01 0.01 0.02 0.02 0.01 0.01 0.03 0.05 0.08 0.09 0.11 0.13 0.17 0.19 0.16 0.17 0.25 0.30 0.27 0.29 0.30 0.31 0.29 0.33 0.43
0.01 0.01 0.01 0.02 0.02 0.02 0.01 0.01 0.01 0.01 0.01 0.01 0.01 0.01 0.01 0.02 0.02 0.02 0.02 0.06 0.08 0.07 0.08 0.12 0.14 0.22 0.20 0.23 0.34 0.41 0.46 0.39 0.28 0.22 0.25 0.29 0.37 0.42
0.01 0.01 0.01 0.02 0.02 0.02 0.02 0.01 0.01 0.00 0.01 0.01 0.01 0.02 0.02 0.03 0.03 0.03 0.03 0.06 0.09 0.12 0.16 0.21 0.22 0.23 0.25 0.27 0.29 0.28 0.38 0.45 0.44 0.38 0.31 0.25 0.24 0.22
0.02 0.01 0.01 0.01 0.01 0.01 0.02 0.02 0.01 0.01 0.01 0.01 0.02 0.02 0.03 0.03 0.03 0.04 0.05 0.06 0.07 0.09 0.12 0.20 0.28 0.33 0.37 0.35 0.35 0.37 0.36 0.38 0.39 0.39 0.43 0.29 0.20 0.15

GFSNE_prec_precacc12_165.txt.gz
Total_Precipitation_Accumulation
0.21 0.19 0.17 0.19 0.26 0.35 0.37 0.36 0.46 0.53 0.43 0.26 0.27 0.20 0.16 0.19 0.22 0.31 0.30 0.24 0.22 0.18 0.18 0.12 0.03 0.03 0.02 0.01 0.00 0.00 0.00 0.00 0.00 0.00 0.00 0.00 0.00 0.01
0.14 0.17 0.14 0.13 0.13 0.13 0.17 0.22 0.19 0.15 0.16 0.19 0.21 0.15 0.14 0.14 0.12 0.16 0.14 0.20 0.20 0.18 0.15 0.15 0.11 0.04 0.03 0.03 0.03 0.01 0.01 0.01 0.00 0.00 0.00 0.00 0.00 0.00
0.11 0.14 0.13 0.12 0.12 0.09 0.11 0.15 0.11 0.09 0.04 0.02 0.02 0.05 0.04 0.03 0.05 0.09 0.10 0.12 0.10 0.12 0.12 0.12 0.14 0.09 0.05 0.02 0.03 0.05 0.06 0.05 0.03 0.03 0.02 0.00 0.00 0.00
0.09 0.10 0.11 0.13 0.11 0.11 0.13 0.16 0.15 0.09 0.08 0.03 0.02 0.03 0.05 0.04 0.04 0.06 0.06 0.06 0.06 0.07 0.09 0.12 0.10 0.05 0.04 0.03 0.02 0.02 0.05 0.07 0.08 0.07 0.05 0.03 0.01 0.00
0.15 0.13 0.12 0.14 0.17 0.14 0.20 0.23 0.24 0.29 0.26 0.17 0.07 0.07 0.10 0.09 0.07 0.05 0.04 0.05 0.03 0.05 0.06 0.08 0.10 0.08 0.06 0.05 0.03 0.02 0.02 0.03 0.06 0.07 0.07 0.07 0.06 0.02
0.32 0.28 0.21 0.24 0.26 0.20 0.18 0.23 0.32 0.24 0.30 0.22 0.20 0.16 0.09 0.08 0.10 0.09 0.07 0.04 0.06 0.05 0.09 0.07 0.08 0.11 0.11 0.09 0.09 0.08 0.06 0.07 0.04 0.06 0.08 0.08 0.07 0.05
0.53 0.46 0.47 0.50 0.45 0.39 0.31 0.25 0.25 0.42 0.22 0.15 0.10 0.10 0.15 0.20 0.17 0.12 0.11 0.08 0.09 0.13 0.11 0.13 0.13 0.11 0.10 0.12 0.11 0.12 0.14 0.14 0.11 0.09 0.07 0.09 0.10 0.07
0.55 0.54 0.51 0.50 0.45 0.41 0.37 0.41 0.34 0.28 0.20 0.15 0.15 0.11 0.09 0.11 0.18 0.28 0.42 0.28 0.13 0.09 0.25 0.32 0.28 0.29 0.23 0.17 0.14 0.15 0.15 0.14 0.17 0.18 0.12 0.09 0.11 0.12
0.48 0.42 0.40 0.47 0.45 0.35 0.39 0.35 0.34 0.34 0.20 0.15 0.12 0.10 0.10 0.14 0.15 0.17 0.17 0.20 0.21 0.12 0.11 0.13 0.39 0.59 0.50 0.47 0.48 0.38 0.26 0.26 0.31 0.27 0.17 0.15 0.19 0.22
0.52 0.44 0.38 0.31 0.39 0.44 0.33 0.36 0.29 0.27 0.19 0.12 0.13 0.14 0.08 0.09 0.11 0.17 0.33 0.44 0.41 0.25 0.28 0.31 0.27 0.40 0.42 0.37 0.39 0.39 0.41 0.30 0.25 0.33 0.44 0.35 0.22 0.26
0.16 0.31 0.36 0.29 0.28 0.30 0.31 0.31 0.30 0.26 0.14 0.22 0.17 0.13 0.22 0.21 0.16 0.15 0.20 0.16 0.16 0.17 0.11 0.21 0.30 0.41 0.44 0.42 0.31 0.32 0.35 0.36 0.37 0.33 0.34 0.43 0.49 0.51
0.02 0.05 0.13 0.24 0.24 0.22 0.15 0.17 0.21 0.18 0.18 0.10 0.22 0.21 0.13 0.21 0.21 0.12 0.06 0.05 0.05 0.04 0.02 0.05 0.04 0.12 0.27 0.28 0.25 0.23 0.20 0.21 0.21 0.26 0.31 0.33 0.40 0.56
0.01 0.01 0.03 0.07 0.14 0.15 0.13 0.07 0.08 0.09 0.09 0.10 0.06 0.16 0.18 0.09 0.11 0.06 0.01 0.02 0.04 0.02 0.05 0.05 0.03 0.06 0.08 0.05 0.05 0.10 0.13 0.18 0.21 0.20 0.22 0.30 0.41 0.51
0.02 0.02 0.01 0.01 0.02 0.05 0.10 0.12 0.08 0.04 0.02 0.02 0.03 0.01 0.05 0.04 0.01 0.00 0.00 0.01 0.04 0.03 0.03 0.04 0.03 0.03 0.06 0.07 0.04 0.04 0.06 0.08 0.10 0.13 0.21 0.30 0.35 0.36
0.00 0.00 0.00 0.00 0.00 0.00 0.01 0.03 0.06 0.06 0.04 0.02 0.01 0.02 0.02 0.00 0.00 0.00 0.00 0.01 0.04 0.08 0.09 0.05 0.06 0.08 0.12 0.18 0.16 0.11 0.10 0.10 0.13 0.14 0.14 0.15 0.20 0.26
0.00 0.00 0.00 0.00 0.00 0.00 0.00 0.00 0.01 0.04 0.06 0.05 0.03 0.01 0.01 0.01 0.00 0.00 0.00 0.01 0.02 0.03 0.07 0.11 0.12 0.16 0.19 0.17 0.18 0.20 0.17 0.16 0.15 0.15 0.18 0.22 0.24 0.22
0.00 0.00 0.00 0.00 0.00 0.00 0.00 0.00 0.01 0.01 0.02 0.04 0.03 0.02 0.01 0.00 0.00 0.00 0.01 0.01 0.01 0.02 0.01 0.03 0.08 0.13 0.14 0.16 0.19 0.18 0.19 0.23 0.23 0.23 0.23 0.24 0.23 0.23
0.00 0.00 0.00 0.01 0.01 0.01 0.01 0.01 0.00 0.00 0.01 0.02 0.02 0.03 0.02 0.01 0.00 0.01 0.02 0.01 0.01 0.02 0.02 0.02 0.06 0.14 0.19 0.18 0.20 0.11 0.13 0.20 0.25 0.26 0.26 0.27 0.29 0.30
0.00 0.00 0.01 0.01 0.01 0.01 0.01 0.01 0.01 0.01 0.01 0.01 0.01 0.01 0.01 0.01 0.01 0.01 0.01 0.02 0.01 0.02 0.02 0.03 0.05 0.04 0.06 0.09 0.13 0.16 0.16 0.20 0.26 0.33 0.33 0.30 0.28 0.32
0.01 0.01 0.01 0.02 0.01 0.02 0.01 0.01 0.01 0.00 0.01 0.01 0.01 0.01 0.01 0.02 0.01 0.01 0.01 0.01 0.01 0.02 0.02 0.02 0.04 0.06 0.07 0.05 0.06 0.13 0.21 0.21 0.25 0.27 0.28 0.27 0.31 0.41
0.01 0.01 0.01 0.02 0.02 0.02 0.02 0.01 0.01 0.01 0.01 0.01 0.01 0.01 0.01 0.02 0.02 0.01 0.01 0.02 0.03 0.02 0.02 0.01 0.02 0.07 0.08 0.11 0.18 0.23 0.29 0.31 0.26 0.21 0.24 0.27 0.34 0.38
0.01 0.01 0.01 0.01 0.02 0.02 0.01 0.01 0.01 0.01 0.01 0.01 0.01 0.01 0.01 0.02 0.03 0.02 0.02 0.03 0.02 0.03 0.03 0.03 0.05 0.08 0.11 0.11 0.11 0.13 0.21 0.29 0.33 0.33 0.30 0.24 0.22 0.20
0.02 0.01 0.01 0.01 0.01 0.01 0.01 0.01 0.01 0.01 0.01 0.01 0.01 0.01 0.01 0.02 0.01 0.03 0.03 0.03 0.04 0.04 0.04 0.06 0.08 0.11 0.15 0.16 0.19 0.21 0.23 0.27 0.31 0.33 0.39 0.30 0.20 0.15

GFSNE_prec_precacc12_168.txt.gz
Total_Precipitation_Accumulation
0.13 0.16 0.14 0.14 0.19 0.26 0.32 0.34 0.47 0.54 0.43 0.24 0.21 0.14 0.08 0.11 0.15 0.20 0.25 0.28 0.31 0.32 0.31 0.27 0.17 0.07 0.04 0.01 0.01 0.00 0.00 0.00 0.00 0.00 0.00 0.00 0.00 0.00
0.12 0.13 0.11 0.10 0.11 0.12 0.16 0.19 0.19 0.16 0.18 0.20 0.20 0.14 0.12 0.08 0.07 0.10 0.11 0.18 0.21 0.24 0.24 0.23 0.24 0.25 0.16 0.06 0.03 0.01 0.01 0.01 0.00 0.00 0.00 0.00 0.00 0.00
0.08 0.13 0.12 0.11 0.11 0.09 0.11 0.14 0.11 0.09 0.05 0.03 0.04 0.07 0.06 0.04 0.04 0.05 0.05 0.09 0.11 0.14 0.17 0.20 0.22 0.23 0.26 0.21 0.08 0.05 0.06 0.04 0.03 0.03 0.02 0.01 0.00 0.00
0.06 0.07 0.10 0.12 0.11 0.11 0.13 0.15 0.13 0.08 0.07 0.06 0.05 0.05 0.03 0.02 0.03 0.03 0.01 0.03 0.04 0.05 0.11 0.15 0.13 0.17 0.26 0.28 0.19 0.07 0.06 0.07 0.08 0.07 0.05 0.03 0.02 0.01
0.15 0.13 0.10 0.12 0.14 0.11 0.15 0.16 0.16 0.19 0.15 0.12 0.09 0.09 0.06 0.04 0.03 0.03 0.02 0.02 0.02 0.04 0.04 0.13 0.20 0.14 0.12 0.20 0.29 0.29 0.15 0.04 0.06 0.07 0.07 0.07 0.07 0.06
0.32 0.29 0.21 0.25 0.27 0.22 0.18 0.21 0.30 0.22 0.25 0.22 0.20 0.13 0.16 0.07 0.08 0.04 0.04 0.03 0.02 0.02 0.04 0.04 0.10 0.19 0.16 0.13 0.15 0.21 0.27 0.21 0.07 0.06 0.08 0.08 0.07 0.07
0.50 0.46 0.47 0.51 0.48 0.46 0.39 0.30 0.26 0.43 0.24 0.24 0.29 0.28 0.17 0.26 0.13 0.08 0.07 0.06 0.07 0.06 0.04 0.03 0.04 0.07 0.12 0.15 0.14 0.14 0.17 0.18 0.14 0.09 0.06 0.07 0.09 0.08
0.39 0.49 0.51 0.53 0.48 0.51 0.47 0.49 0.45 0.40 0.50 0.36 0.29 0.39 0.43 0.24 0.24 0.14 0.13 0.11 0.07 0.05 0.11 0.09 0.05 0.05 0.11 0.16 0.18 0.18 0.16 0.14 0.16 0.17 0.16 0.12 0.09 0.10
0.42 0.40 0.41 0.50 0.48 0.44 0.52 0.48 0.51 0.50 0.52 0.56 0.44 0.36 0.52 0.40 0.21 0.14 0.12 0.10 0.08 0.05 0.07 0.07 0.08 0.09 0.05 0.15 0.31 0.35 0.32 0.33 0.34 0.27 0.20 0.22 0.26 0.23
0.50 0.44 0.39 0.32 0.41 0.49 0.45 0.51 0.48 0.55 0.54 0.55 0.49 0.44 0.39 0.26 0.16 0.12 0.14 0.17 0.16 0.11 0.11 0.12 0.05 0.04 0.05 0.08 0.19 0.29 0.35 0.32 0.31 0.41 0.49 0.43 0.33 0.28
0.15 0.31 0.36 0.29 0.29 0.34 0.38 0.44 0.49 0.48 0.56 0.56 0.64 0.42 0.42 0.35 0.22 0.19 0.20 0.19 0.17 0.18 0.13 0.11 0.13 0.17 0.21 0.25 0.22 0.23 0.26 0.36 0.40 0.40 0.42 0.49 0.58 0.63
0.02 0.05 0.13 0.24 0.24 0.24 0.23 0.27 0.37 0.40 0.45 0.45 0.54 0.51 0.29 0.34 0.30 0.17 0.15 0.21 0.24 0.21 0.15 0.16 0.07 0.06 0.18 0.20 0.25 0.26 0.21 0.27 0.31 0.34 0.41 0.43 0.50 0.66
0.01 0.02 0.04 0.07 0.14 0.16 0.15 0.14 0.17 0.23 0.27 0.32 0.29 0.37 0.37 0.16 0.23 0.23 0.12 0.14 0.24 0.25 0.28 0.19 0.08 0.07 0.07 0.02 0.04 0.12 0.16 0.21 0.27 0.26 0.30 0.38 0.49 0.62
0.02 0.02 0.02 0.01 0.02 0.05 0.10 0.13 0.11 0.08 0.07 0.09 0.12 0.10 0.13 0.14 0.07 0.15 0.19 0.16 0.16 0.26 0.26 0.22 0.11 0.02 0.04 0.05 0.02 0.04 0.09 0.11 0.14 0.15 0.23 0.32 0.40 0.45
0.00 0.00 0.00 0.00 0.00 0.00 0.01 0.03 0.07 0.07 0.06 0.04 0.03 0.04 0.04 0.04 0.06 0.02 0.06 0.12 0.16 0.23 0.26 0.18 0.10 0.07 0.02 0.03 0.02 0.01 0.03 0.05 0.12 0.16 0.14 0.15 0.21 0.28
0.00 0.00 0.00 0.00 0.00 0.00 0.00 0.00 0.02 0.05 0.07 0.06 0.04 0.02 0.01 0.02 0.02 0.02 0.01 0.03 0.05 0.06 0.09 0.11 0.07 0.05 0.03 0.03 0.03 0.03 0.03 0.04 0.05 0.09 0.16 0.23 0.24 0.21
0.00 0.00 0.00 0.00 0.00 0.00 0.00 0.00 0.01 0.01 0.03 0.05 0.04 0.02 0.01 0.01 0.01 0.01 0.01 0.01 0.02 0.01 0.01 0.02 0.03 0.03 0.03 0.04 0.04 0.03 0.04 0.08 0.09 0.11 0.16 0.20 0.21 0.22
0.00 0.00 0.01 0.01 0.01 0.01 0.01 0.01 0.00 0.01 0.01 0.02 0.02 0.03 0.02 0.01 0.01 0.01 0.01 0.01 0.01 0.01 0.02 0.01 0.01 0.01 0.02 0.03 0.06 0.01 0.01 0.04 0.06 0.10 0.15 0.18 0.22 0.25
0.01 0.01 0.01 0.01 0.01 0.01 0.01 0.01 0.01 0.01 0.01 0.01 0.01 0.02 0.02 0.02 0.02 0.01 0.01 0.01 0.01 0.01 0.01 0.01 0.02 0.01 0.01 0.02 0.02 0.02 0.01 0.03 0.08 0.13 0.16 0.18 0.19 0.26
0.01 0.02 0.02 0.02 0.01 0.02 0.01 0.01 0.01 0.01 0.01 0.01 0.02 0.01 0.02 0.02 0.02 0.01 0.02 0.02 0.01 0.01 0.00 0.00 0.01 0.02 0.02 0.01 0.01 0.03 0.07 0.02 0.03 0.05 0.09 0.12 0.19 0.31
0.01 0.01 0.02 0.02 0.02 0.02 0.02 0.02 0.02 0.02 0.02 0.02 0.02 0.02 0.02 0.03 0.02 0.01 0.01 0.01 0.02 0.02 0.02 0.00 0.01 0.03 0.02 0.03 0.03 0.04 0.09 0.12 0.08 0.07 0.09 0.14 0.20 0.27
0.02 0.02 0.02 0.02 0.02 0.02 0.02 0.02 0.02 0.01 0.02 0.02 0.01 0.02 0.02 0.03 0.03 0.02 0.02 0.02 0.02 0.02 0.02 0.01 0.02 0.03 0.04 0.04 0.03 0.03 0.06 0.11 0.15 0.16 0.15 0.13 0.13 0.13
0.02 0.02 0.02 0.02 0.02 0.02 0.02 0.02 0.02 0.02 0.02 0.02 0.02 0.02 0.02 0.02 0.02 0.03 0.03 0.03 0.03 0.03 0.02 0.03 0.04 0.06 0.06 0.06 0.07 0.07 0.07 0.10 0.13 0.16 0.21 0.18 0.13 0.11